[[{"header":{"parameterUnit":"m.s-1","parameterCategory":1,"la1":30.2991,"la2":30.254,"lo1":-89.0895,"lo2":-89.0444,"dy":0.0017,"dx":0.0017,"nx":28,"ny":28,"refTime":"2024-04-07T09:00:00:Z","depth":0,"parameterNumber":2,"parameterNumberName":"U-component_of_WINDS"},"data":[0,0,0,0,0,0,0,0,0,0,0,0,0,0,0,0,0,0,0,0,0,0,0,0,0,0,0,0,0,0,0,0,0,0,0,0,0,0,0,0,0,0,0,0,0,0,0,0,0,0,0,0,0,0,0,0,0,0,-3.6572,-3.6573,0,-3.6697,-3.6698,-3.67,-3.6741,-3.674,-3.674,-3.6739,-3.6867,-3.6871,-3.6875,0,0,0,0,0,0,0,0,0,0,0,0,0,-3.637,-3.6373,-3.6572,-3.6573,-3.6575,-3.6697,-3.6698,-3.67,-3.6741,-3.674,-3.674,-3.6739,-3.6866,-3.687,-3.6875,0,0,0,0,0,0,0,0,0,0,0,0,0,-3.6472,-3.6374,-3.6572,-3.661,-3.6615,-3.6696,-3.6698,-3.6701,-3.6741,-3.674,-3.674,-3.6739,-3.6864,-3.687,-3.6876,-3.6928,0,0,-3.6894,-3.6896,0,0,0,0,0,0,0,0,-3.6466,-3.648,-3.6603,-3.6608,-3.6613,-3.6703,-3.6674,-3.6777,-3.6741,-3.6693,-3.6739,-3.6738,-3.6813,-3.6823,-3.6848,-3.6934,-3.6939,-3.6894,-3.6898,-3.69,-3.6902,0,0,0,0,0,0,0,-3.6459,-3.6474,-3.6621,-3.6605,-3.6611,-3.6621,-3.6635,-3.6694,-3.6756,-3.6697,-3.6701,-3.6715,-3.6816,-3.6842,-3.6852,-3.6941,-3.6894,-3.6899,-3.6903,-3.6905,-3.7077,-3.7078,0,0,0,0,0,0,-3.6446,-3.6468,-3.6617,-3.6625,-3.6536,-3.6626,-3.6641,-3.6675,-3.6756,-3.6767,-3.6715,-3.6716,-3.6833,-3.6845,-3.6856,-3.6923,-3.69,-3.6906,-3.6909,-3.7076,-3.7077,-3.7078,0,0,0,0,0,0,-3.6441,-3.6458,-3.6612,-3.6548,-3.6568,-3.663,-3.6667,-3.6677,-3.6704,-3.6769,-3.6781,-3.6731,-3.6833,-3.6848,-3.691,-3.6927,-3.6908,-3.6914,-3.7075,-3.7076,-3.7078,-3.7055,0,0,0,0,0,0,-3.6435,-3.6457,-3.6477,-3.6548,-3.6571,-3.6664,-3.6669,-3.6681,-3.6714,-3.6717,-3.6787,-3.6798,-3.6833,-3.6901,-3.6916,-3.6935,-3.6918,-3.7073,-3.7075,-3.7077,-3.7055,-3.7056,-3.7057,0,0,0,0,0,-3.6428,-3.6465,-3.6477,-3.6495,-3.6598,-3.6664,-3.6678,-3.6718,-3.6716,-3.6736,-3.6778,-3.6796,-3.6924,-3.6907,-3.6924,-3.6945,-3.7072,-3.7075,-3.7077,-3.7054,-3.7056,-3.7057,0,0,0,0,0,0,-3.6394,-3.6475,-3.649,-3.6551,-3.6601,-3.6671,-3.6699,-3.6718,-3.6769,-3.6769,-3.6816,-3.6832,-3.689,-3.6925,-3.6905,-3.7001,-3.6999,-3.7005,-3.6976,-3.6978,-3.6979,-3.6969,-3.6923,0,0,0,0,0,-3.6394,-3.6441,-3.651,-3.6558,-3.6582,-3.6636,-3.6667,-3.6693,-3.6746,-3.6767,-3.6814,-3.6864,-3.6916,-3.6949,-3.7,-3.7061,-3.7077,-3.7084,-3.7085,-3.7086,-3.709,-3.7124,-3.7128,-3.7086,-3.7086,-3.7086,0,0,-3.6394,-3.6444,-3.6471,-3.6552,-3.6594,-3.6642,-3.6653,-3.6703,-3.674,-3.6775,-3.6836,-3.6872,-3.6932,-3.6994,-3.7023,-3.7024,-3.7105,-3.7089,-3.7089,-3.7093,-3.7127,-3.7131,-3.7135,-3.7088,-3.7087,-3.7087,0,0,-3.6418,-3.6461,-3.6506,-3.6547,-3.661,-3.6646,-3.6657,-3.6725,-3.675,-3.6813,-3.684,-3.6885,-3.6973,-3.7014,-3.7047,-3.7089,-3.7107,-3.7104,-3.711,-3.7143,-3.7146,-3.7149,-3.7164,-3.7168,-3.7109,-3.7109,-3.7109,0,-3.641,-3.6483,-3.6526,-3.6575,-3.661,-3.6645,-3.6691,-3.6729,-3.6805,-3.6829,-3.6829,-3.6941,-3.6984,-3.7055,-3.7066,-3.7091,-3.7105,-3.7096,-3.7142,-3.7146,-3.7149,-3.7164,-3.7169,-3.7108,-3.7108,-3.7108,-3.7108,0,-3.647,-3.652,-3.6549,-3.6622,-3.666,-3.6707,-3.6758,-3.6792,-3.6815,-3.6852,-3.6915,-3.6968,-3.7031,-3.705,-3.7074,-3.7126,-3.7124,-3.7133,-3.7132,-3.7152,-3.7166,-3.7172,-3.7107,-3.7107,-3.7107,-3.7107,0,0,-3.6475,-3.6572,-3.6581,-3.6615,-3.6687,-3.6727,-3.6777,-3.6838,-3.6866,-3.6918,-3.696,-3.7035,-3.7044,-3.7081,-3.711,-3.7139,-3.7169,-3.7145,-3.7147,-3.7146,-3.7229,-3.7221,-3.7226,-3.7182,-3.7183,-3.7184,-3.7224,0,-3.6507,-3.6596,-3.6637,-3.6707,-3.6754,-3.6789,-3.6832,-3.6881,-3.6917,-3.6963,-3.7003,-3.7054,-3.7062,-3.7085,-3.7116,-3.7158,-3.7186,-3.7156,-3.7221,-3.7223,-3.7203,-3.7234,-3.7226,-3.726,-3.7229,-3.723,-3.7231,0,-3.6557,-3.6609,-3.6684,-3.6751,-3.6773,-3.6811,-3.6871,-3.6914,-3.6971,-3.6995,-3.7037,-3.7066,-3.7119,-3.7116,-3.719,-3.7169,-3.7199,-3.7224,-3.7226,-3.7233,-3.7227,-3.724,-3.7272,-3.7277,-3.724,-3.724,-3.7239,0,-3.6552,-3.6641,-3.6697,-3.6725,-3.6806,-3.6831,-3.6866,-3.6922,-3.6957,-3.701,-3.7033,-3.7092,-3.7123,-3.7168,-3.7212,-3.7205,-3.7282,-3.7282,-3.7303,-3.7302,-3.7316,-3.7314,-3.7352,-3.7337,-3.7337,-3.7337,-3.7337,0,-3.6583,-3.6627,-3.6696,-3.673,-3.6781,-3.6829,-3.6878,-3.6915,-3.6966,-3.7008,-3.7043,-3.7082,-3.7138,-3.7185,-3.722,-3.7276,-3.729,-3.7311,-3.7319,-3.7307,-3.7304,-3.7326,-3.7324,-3.7338,-3.7338,-3.7338,-3.7338,0,-3.6585,-3.6633,-3.6696,-3.6768,-3.6787,-3.6821,-3.6882,-3.6918,-3.6956,-3.701,-3.7025,-3.7085,-3.7142,-3.719,-3.7265,-3.7289,-3.7346,-3.7357,-3.7327,-3.7331,-3.7349,-3.7346,-3.7401,-3.741,-3.7389,-3.739,-3.739,0,-3.6601,-3.6636,-3.6711,-3.6742,-3.6777,-3.6826,-3.6862,-3.691,-3.6946,-3.7015,-3.7042,-3.7101,-3.7151,-3.7241,-3.7291,-3.7349,-3.7361,-3.7376,-3.7369,-3.7356,-3.736,-3.7357,-3.736,-3.7375,-3.7375,-3.7375,-3.7375,0,-3.6624,-3.6647,-3.6696,-3.6755,-3.6797,-3.6845,-3.6895,-3.6918,-3.6976,-3.7015,-3.7073,-3.7112,-3.7189,-3.7248,-3.7311,-3.7348,-3.7371,-3.7377,-3.7385,-3.7372,-3.7353,-3.7363,-3.7326,-3.7375,-3.7375,-3.7375,-3.7375,-3.7375,-3.6634,-3.6666,-3.6724,-3.6779,-3.6822,-3.6867,-3.6904,-3.6947,-3.6996,-3.7062,-3.7089,-3.7148,-3.7206,-3.7294,-3.7331,-3.7379,-3.7382,-3.7393,-3.7396,-3.7398,-3.7395,-3.7346,-3.739,-3.7391,-3.7391,-3.7391,-3.7391,0,-3.6658,-3.6697,-3.6747,-3.6815,-3.6859,-3.6878,-3.6934,-3.6968,-3.7021,-3.7072,-3.7121,-3.7189,-3.7246,-3.7302,-3.7362,-3.739,-3.7402,-3.7404,-3.7402,-3.741,-3.7389,-3.7376,-3.7393,-3.7393,-3.7393,-3.7393,-3.7393,-3.7393,-3.6676,-3.6732,-3.6761,-3.6839,-3.6879,-3.6937,-3.6968,-3.701,-3.7052,-3.7126,-3.7173,-3.7209,-3.7263,-3.7328,-3.7382,-3.7397,-3.7417,-3.7416,-3.7433,-3.7412,-3.7411,-3.741,-3.7398,-3.742,-3.742,-3.745,-3.745,-3.745]},{"header":{"parameterUnit":"m.s-1","parameterCategory":1,"la1":30.2991,"la2":30.254,"lo1":-89.0895,"lo2":-89.0444,"dy":0.0017,"dx":0.0017,"nx":28,"ny":28,"refTime":"2024-04-07T09:00:00:Z","depth":0,"parameterNumber":3,"parameterNumberName":"V-component_of_WINDS"},"data":[0,0,0,0,0,0,0,0,0,0,0,0,0,0,0,0,0,0,0,0,0,0,0,0,0,0,0,0,0,0,0,0,0,0,0,0,0,0,0,0,0,0,0,0,0,0,0,0,0,0,0,0,0,0,0,0,0,0,3.9443,3.9443,0,3.945,3.945,3.945,3.9435,3.9434,3.9434,3.9433,3.944,3.944,3.9441,0,0,0,0,0,0,0,0,0,0,0,0,0,3.9417,3.9417,3.9443,3.9443,3.9443,3.945,3.945,3.945,3.9435,3.9434,3.9434,3.9433,3.944,3.944,3.9441,0,0,0,0,0,0,0,0,0,0,0,0,0,3.9426,3.9418,3.9443,3.9437,3.9436,3.945,3.945,3.945,3.9435,3.9434,3.9433,3.9433,3.9439,3.944,3.9441,3.9462,0,0,3.9444,3.9445,0,0,0,0,0,0,0,0,3.9426,3.9427,3.9437,3.9437,3.9436,3.9441,3.9443,3.9454,3.9435,3.9435,3.9433,3.9432,3.9441,3.9442,3.9444,3.9462,3.9462,3.9444,3.9445,3.9445,3.9446,0,0,0,0,0,0,0,3.9425,3.9427,3.9446,3.9438,3.9437,3.9433,3.9434,3.9445,3.9442,3.9435,3.9434,3.9435,3.944,3.9444,3.9444,3.9463,3.9444,3.9445,3.9446,3.9446,3.9498,3.9499,0,0,0,0,0,0,3.9425,3.9427,3.9446,3.9446,3.9429,3.9434,3.9435,3.944,3.9442,3.9441,3.9436,3.9434,3.9442,3.9443,3.9445,3.9469,3.9445,3.9446,3.9447,3.9497,3.9498,3.9499,0,0,0,0,0,0,3.9425,3.9427,3.9445,3.9436,3.9438,3.9435,3.9442,3.9441,3.9444,3.9442,3.9442,3.944,3.9442,3.9443,3.9458,3.9469,3.9447,3.9447,3.9496,3.9497,3.9498,3.9518,0,0,0,0,0,0,3.9424,3.9427,3.9435,3.9436,3.9439,3.9459,3.9442,3.9441,3.9446,3.9444,3.9446,3.9445,3.9441,3.9456,3.9459,3.947,3.9448,3.9495,3.9497,3.9498,3.9516,3.952,3.9523,0,0,0,0,0,3.9423,3.944,3.9436,3.9438,3.9448,3.9459,3.9461,3.9456,3.9447,3.9454,3.9453,3.9445,3.9467,3.9458,3.9461,3.9472,3.9494,3.9496,3.9498,3.9515,3.9519,3.9523,0,0,0,0,0,0,3.944,3.944,3.9435,3.9453,3.9456,3.9457,3.9466,3.946,3.9466,3.9464,3.9458,3.9458,3.9474,3.9474,3.9464,3.9492,3.9479,3.9482,3.9491,3.9495,3.9498,3.9498,3.9449,0,0,0,0,0,3.9446,3.9455,3.9454,3.947,3.9472,3.9469,3.9474,3.9469,3.9473,3.9474,3.9474,3.9477,3.9485,3.949,3.9497,3.9516,3.9517,3.9526,3.9529,3.9531,3.9534,3.9544,3.9548,3.9505,3.9505,3.9505,0,0,3.9458,3.9459,3.9465,3.9474,3.9476,3.9485,3.947,3.9481,3.9488,3.9475,3.9489,3.9489,3.9493,3.951,3.9517,3.9511,3.9545,3.9534,3.9536,3.9536,3.9546,3.955,3.9554,3.9506,3.9506,3.9506,0,0,3.9485,3.9486,3.95,3.9502,3.9506,3.9504,3.9507,3.9508,3.9508,3.9522,3.9513,3.9521,3.9534,3.9537,3.954,3.9568,3.9561,3.9571,3.9587,3.9597,3.9601,3.9604,3.9614,3.9617,3.9573,3.9573,3.9573,0,3.9499,3.9513,3.9508,3.9519,3.9523,3.9512,3.9526,3.9528,3.9534,3.9537,3.9529,3.9546,3.9548,3.9565,3.9572,3.9575,3.9578,3.957,3.9601,3.9604,3.9606,3.9616,3.962,3.9574,3.9574,3.9574,3.9574,0,3.9531,3.9541,3.9551,3.9557,3.9562,3.9574,3.9571,3.9576,3.9572,3.957,3.9585,3.9586,3.9593,3.9597,3.9593,3.9614,3.961,3.9602,3.9589,3.9612,3.9621,3.9624,3.9576,3.9575,3.9575,3.9575,0,0,3.9569,3.9571,3.9575,3.9578,3.9581,3.9588,3.96,3.9607,3.9612,3.9616,3.9626,3.9638,3.963,3.9634,3.963,3.9639,3.9661,3.9629,3.9629,3.9635,3.9685,3.9691,3.9695,3.9656,3.9657,3.9657,3.9685,0,3.9595,3.9616,3.9611,3.9631,3.964,3.963,3.9641,3.9644,3.9643,3.965,3.9649,3.9657,3.9647,3.9649,3.9657,3.9656,3.9671,3.9654,3.9665,3.9666,3.9665,3.97,3.9707,3.9732,3.9688,3.9689,3.9689,0,3.9629,3.9635,3.9656,3.9658,3.9661,3.9671,3.9677,3.9684,3.9687,3.9686,3.969,3.9684,3.9696,3.9682,3.9698,3.9687,3.9692,3.9692,3.9693,3.9694,3.9679,3.9702,3.974,3.9744,3.9694,3.9694,3.9694,0,3.9655,3.9668,3.9682,3.9685,3.9687,3.9694,3.9695,3.9697,3.9702,3.9707,3.971,3.9717,3.9721,3.9726,3.9722,3.9713,3.9739,3.9725,3.9738,3.9738,3.9744,3.9744,3.9784,3.9746,3.9746,3.9746,3.9746,0,3.9686,3.9699,3.9694,3.9703,3.9717,3.9712,3.9726,3.9727,3.9729,3.9737,3.9729,3.9737,3.9732,3.9739,3.9736,3.975,3.9752,3.9751,3.975,3.9752,3.9752,3.9755,3.9753,3.9747,3.9747,3.9747,3.9747,0,3.9717,3.9714,3.9729,3.973,3.9731,3.9741,3.9742,3.975,3.9749,3.976,3.9762,3.9759,3.9768,3.9765,3.9774,3.9772,3.9789,3.9786,3.9789,3.9788,3.9801,3.98,3.9844,3.985,3.9809,3.9809,3.9809,0,3.9737,3.9747,3.9749,3.9754,3.9756,3.9765,3.9769,3.9764,3.9769,3.9774,3.9781,3.9789,3.9795,3.981,3.9809,3.9816,3.9813,3.9828,3.9814,3.9815,3.9813,3.9813,3.9814,3.9831,3.9831,3.9831,3.9832,0,3.9773,3.9771,3.9778,3.9785,3.979,3.9795,3.98,3.9804,3.9799,3.9805,3.9814,3.9819,3.9828,3.9836,3.9843,3.9844,3.9837,3.9836,3.9839,3.9842,3.9843,3.9842,3.9796,3.9835,3.9835,3.9835,3.9834,3.9834,3.9799,3.9808,3.9811,3.9819,3.9821,3.9825,3.9833,3.9833,3.984,3.9847,3.9843,3.9854,3.9856,3.9864,3.9866,3.9874,3.9868,3.9873,3.9874,3.9876,3.9878,3.9841,3.9875,3.9875,3.9875,3.9875,3.9875,0,3.9835,3.9836,3.9844,3.985,3.9856,3.9849,3.9853,3.9859,3.9869,3.9872,3.9878,3.9888,3.9896,3.9895,3.9902,3.9909,3.9906,3.9911,3.991,3.9911,3.9882,3.9879,3.9913,3.9913,3.9913,3.9913,3.9913,3.9913,3.9854,3.9869,3.9867,3.9882,3.9883,3.9893,3.9896,3.99,3.9902,3.9914,3.992,3.992,3.9922,3.9929,3.9935,3.9935,3.9938,3.9944,3.9943,3.9916,3.9913,3.9909,3.9906,3.9945,3.9945,3.9971,3.9971,3.9971]}]]